SHIJIAN-29A (SJ-29A)

Last updated on Sun Jun 21 2026 00:03:10 GMT+0000 (Coordinated Universal Time)

1 67302U 25315A 26171.40649869 -.00000072 00000+0 00000+0 0 9995 2 67302 3.4070 95.0285 0003269 23.8001 9.2958 1.00270205 1659
UTC large
Height (km)
Speed (km/s)
/
Latitude / Longitude
Inclination (degrees)
Orbital Period (minutes)
Azimuth
Elevation
Range (km)
Doppler Factor

Next 0 passes for location: London (51.5072 / 0.1276)

No passes found over London.
SHIJIAN-29A (SJ-29A)